Regional Weather Roundup
Issued by NWS Mt. Holly, NJ

Home | Current Version | Previous Version | Text Only | Print | Product List | Glossary On
Versions: 1 2 3 4 5 6 7 8 9 10 11 12 13 14 15 16 17 18 19 20 21 22 23 24 25 26 27 28
000
ASUS41 KPHI 040412
RWRPHI

REGIONAL WEATHER ROUNDUP
NATIONAL WEATHER SERVICE MOUNT HOLLY NJ
1100 PM EST SAT DEC 03 2016

NOTE:  "FAIR" INDICATES FEW OR NO CLOUDS BELOW 12,000 FEET WITH NO
SIGNIFICANT WEATHER AND/OR OBSTRUCTIONS TO VISIBILITY.

 * = STATION DOES NOT REPORT PRECIPITATION (E.G. RAIN, SNOW, ETC.)
        OR FOG.

NJZ015>026-040500-
SOUTHERN NEW JERSEY

CITY           SKY/WX    TMP DP  RH WIND       PRES   REMARKS
POMONA         CLOUDY    45  30  55 W7        30.19R
WILDWOOD*      CLOUDY    45  34  65 W9        30.21R
MILLVILLE      CLOUDY    45  32  60 NW12      30.20R
WRIGHTSTOWN    CLOUDY    44  29  55 NW12      30.15R
MOUNT HOLLY    CLOUDY    45  28  51 VRB3      30.19R
TRENTON        CLOUDY    44  26  49 NW7       30.18R

$$
NJZ001>014-040500-
NORTHERN NEW JERSEY

CITY           SKY/WX    TMP DP  RH WIND       PRES   REMARKS
SUSSEX         CLOUDY    40  25  55 NW9G20    30.15S WCI  34
ANDOVER*         N/A     39  26  59 N9        30.15R WCI  33
MORRISTOWN     CLOUDY    41  27  56 NW9G16    30.16R
NEWARK         CLOUDY    43  27  53 NW18      30.16R
TETERBORO      CLOUDY    43  24  47 NW10      30.15R
CALDWELL       CLOUDY    42  24  49 NW12G20   30.17R
SOMERVILLE     CLOUDY    44  26  49 NW10      30.16R
ALLAIRE*       CLOUDY    43  27  53 NW14      30.17R
TOMS RIVER*    CLOUDY    44  27  51 NW8       30.18R

$$
PAZ043-044-047-054-055-060>062-066>071-040500-
EASTERN PENNSYLVANIA

CITY           SKY/WX    TMP DP  RH WIND       PRES   REMARKS
PHILADELPHIA   CLOUDY    47  29  49 NW12G21   30.20R
NORTH PHILA    CLOUDY    45  31  58 NW7       30.20R
BLUE BELL*     CLOUDY    43  32  65 CALM      30.18R
DOYLESTOWN     CLOUDY    44  26  49 NW8       30.18R
QUAKERTOWN*    CLOUDY    41  25  52 NW9       30.19R
PERKASIE*      CLOUDY    41  25  52 NW12G21   30.19R
POTTSTOWN      CLOUDY    43  30  60 W8        30.20R
LANCASTER      CLOUDY    43  33  68 NW6       30.21R
COATESVILLE    CLOUDY    43  32  65 NW9       30.20S
READING        CLOUDY    43  29  57 NW13      30.20R
ALLENTOWN      CLOUDY    43  24  47 NW13      30.18R
MOUNT POCONO   CLOUDY    32  23  69 NW18G28   30.10R WCI  20
HAZLETON       CLOUDY    36  25  64 NW13G21   30.17R WCI  27
LEHIGHTON        N/A     41  25  52 W6        30.19R
WILKES BARRE   CLOUDY    38  25  59 N18G25    30.17R WCI  28

$$
DEZALL-MDZ008-012-015-019-020-040500-
DELAWARE AND EASTERN MARYLAND

CITY           SKY/WX    TMP DP  RH WIND       PRES   REMARKS
WILMINGTON     CLOUDY    45  32  60 W10       30.22R
DOVER          CLOUDY    44  33  67 W9        30.21R
GEORGETOWN     CLOUDY    43  31  62 W8        30.24R
EASTON         CLOUDY    43  31  63 NW8       30.29R
ABERDEEN       CLOUDY    42  32  65 W6        30.24R
PATUXENT       CLOUDY    40  28  62 W12       30.28R WCI  33
OCEAN CITY     PTCLDY    40  30  67 NW6       30.24R
WALLOPS ISLAND CLOUDY    40  32  73 W7        30.26R
CAMBRIDGE      MOCLDY    39  32  75 NW5       30.26R
SALISBURY      PTCLDY    39  31  72 W6        30.25R WCI  35

$$
PAZ001-021-NYZ056-072-MDZ011-DCZ001-040500-
OTHER NEARBY LOCATIONS

CITY           SKY/WX    TMP DP  RH WIND       PRES   REMARKS
HARRISBURG     CLOUDY    44  32  62 NW14      30.21S
STATE COLLEGE  CLOUDY    37  32  80 W9        30.22R WCI  31
WILLIAMSPORT   CLOUDY    41  30  65 W6        30.21R
BINGHAMTON     CLOUDY    31  25  78 NW8       30.13R WCI  23
NEW YORK CITY  CLOUDY    43  25  49 VRB7      30.17R
BALTIMORE      CLOUDY    41  30  65 W10       30.26R
WASHINGTON DC  MOCLDY    42  29  59 VRB7G17   30.29R

$$




USA.gov is the U.S. government's official web portal to all federal, state and local government web resources and services.